Location: Unspecified
(43.3830°N, 0.0000°E)
Time: 21:00:50
(UTC+00:00)

Envisat - Visible Passes

Search period start: 30 November 2020 00:00
Search period end: 10 December 2020 00:00
Orbit: 764 x 766 km, 98.1° (Epoch: 30 November)

Date Brightness Start Highest point End Pass type
(mag) Time Alt. Az. Time Alt. Az. Time Alt. Az.
30 Nov 3.1 05:57:52 10° NNE 06:02:59 83° ESE 06:08:04 10° SSW visible
30 Nov 3.4 17:13:26 10° S 17:18:28 69° WSW 17:23:33 10° NNW visible
01 Dec 4.5 05:21:21 10° NNE 05:26:04 38° E 05:30:47 10° SSE visible
01 Dec 5.8 18:17:37 10° SW 18:21:05 18° W 18:24:34 10° NW visible
02 Dec 5.8 04:45:34 10° NE 04:48:57 18° E 04:52:21 10° SE visible
02 Dec 3.1 06:23:22 10° N 06:28:21 58° WNW 06:33:19 10° SSW visible
02 Dec 4.5 17:39:15 10° SSW 17:43:59 39° W 17:48:45 10° NNW visible
03 Dec 3.4 05:46:30 10° NNE 05:51:35 66° ESE 05:56:37 10° S visible
03 Dec 3.1 17:02:00 10° SSE 17:07:05 86° WSW 17:12:12 10° NNW visible
03 Dec 6.5 18:46:43 10° W 18:46:50 10° W 18:46:57 10° W visible
04 Dec 4.9 05:10:09 10° NE 05:14:37 30° E 05:19:03 10° SSE visible
04 Dec 5.5 18:05:35 10° SW 18:09:35 23° W 18:13:36 10° NW visible
05 Dec 6.1 04:34:51 10° ENE 04:37:27 14° E 04:40:02 10° ESE visible
05 Dec 2.9 06:11:55 10° N 06:17:00 73° WNW 06:22:03 10° SSW visible
05 Dec 4.0 17:27:38 10° S 17:32:33 50° W 17:37:29 10° NNW visible
06 Dec 3.9 05:35:11 10° NNE 05:40:10 52° E 05:45:06 10° S visible
06 Dec 3.0 16:50:38 10° SSE 16:55:42 76° ENE 17:00:48 10° N visible
06 Dec 6.1 18:32:55 10° WSW 18:35:17 13° W 18:37:40 10° WNW visible
07 Dec 5.3 04:59:02 10° NE 05:03:08 24° E 05:07:13 10° SSE visible
07 Dec 3.4 06:37:32 10° N 06:42:19 42° WNW 06:47:04 10° SW visible
07 Dec 5.1 17:53:44 10° SSW 17:58:06 29° W 18:02:30 10° NW visible
08 Dec 6.3 04:24:48 10° ENE 04:25:54 11° E 04:27:01 10° E visible
08 Dec 3.0 06:00:30 10° NNE 06:05:37 90° ESE 06:10:42 10° SSW visible
08 Dec 3.6 17:16:06 10° S 17:21:08 63° W 17:26:11 10° NNW visible
09 Dec 4.3 05:23:55 10° NNE 05:28:44 41° E 05:33:30 10° SSE visible
09 Dec 6.0 18:20:32 10° SW 18:23:45 17° W 18:27:01 10° NW visible
